www.pogodaiklimat.ru

Погода и климат >> Архив погоды >> Украина >> Хуст


ПОГОДА в Хусте

  • Прогноз погоды в Хусте
  • Монитор погоды в Хусте

АРХИВ ПОГОДЫ в Хусте

Время (UTC), дата Ветер
(напр.,м/с)
 
Видим.   Явления Облачность Т
(С)
Тd
(С)
f
(%)
Тe
(С)
Тes
(С)
Комфортность P
(гПа)
Po
(гПа)
Тmin
(С)
Tmax
(С)
R
(мм)
R24
(мм)
S
(см)
21 16.08 СВ 1 10 км ясно +17.3 +12.0 71 +18 +18 1017.1 995.6
00 17.08 В 1 10 км ясно +13.2 +11.3 88 +13 +13 1017.4 995.5
03 17.08 В 1 10 км ясно +11.0 +9.7 92 +11 +11 1018.2 996.2
06 17.08 В 1 10 км ясно +12.8 +10.5 86 +13 +17 1018.6 996.7 +10.0
09 17.08 СВ 1 10 км 1/0
[Ac trans]
+20.1 +11.3 57 +23 +37 комфорт 1018.2 996.8
12 17.08 В 1 10 км 3/3 1000 м
[Cu med, cong]
+25.3 +7.4 32 +25 +36 комфорт 1016.8 995.8
15 17.08 Ю 1 10 км 6/6 1000 м
[Cu med, cong]
+25.7 +8.2 33 +26 +27 жарко 1015.3 994.4
18 17.08 ЮЗ 1 10 км 9/0
[Ci fib]
+21.3 +13.0 59 +24 +24 комфорт 1015.6 994.4 +26.4
21 17.08 СВ 1 10 км 4/0
[Ac trans]
+16.2 +12.7 80 +17 +17 1016.4 994.8
00 18.08 В 1 10 км 3/0
[Ci fib]
+13.4 +10.9 85 +14 +14 1017.4 995.6
03 18.08 СВ 1 10 км ясно +12.0 +10.6 91 +12 +12 1018.2 996.2
06 18.08 СВ 1 10 км 6/0
[Ac trans]
+14.4 +11.9 85 +15 +18 1018.8 997.0 +12.0
09 18.08 ЮВ 1 10 км 9/0
[Ac trans]
+21.5 +13.1 59 +24 +31 комфорт 1017.8 996.5
12 18.08 ЮВ 1 10 км 9/3 1000 м
[Cu med, cong Ac trans Ci fib]
+25.1 +13.6 49 +27 +33 жарко 1017.2 996.2
15 18.08 ЮВ 1 10 км 9/9 1000 м
[Sc]
+25.3 +14.7 52 +28 +28 жарко 1016.3 995.3
18 18.08 ЮВ 1 10 км 8/0
[Ac trans Ci fib]
+22.9 +16.7 68 +28 +28 душно 1016.4 995.3 +25.3
21 18.08 В 1 10 км 3/0
[Ac trans]
+17.8 +14.1 79 +19 +19 1017.4 995.9
00 19.08 В 1 10 км ясно +15.6 +12.9 84 +16 +16 1018.2 996.5
03 19.08 ЮВ 1 10 км ясно +14.3 +12.5 89 +15 +15 1018.6 996.8
06 19.08 Ю 1 10 км ясно +16.4 +14.0 86 +17 +21 1019.0 997.3 +14.3
09 19.08 В 1 10 км 4/0
[Ci fib]
+24.3 +15.5 58 +27 +41 жарко 1019.2 998.1
12 19.08 В 1 10 км 3/0
[Ci fib]
+29.6 +15.7 43 +32 +46 душно 1017.9 997.2
15 19.08 ЮЗ 1 10 км ясно +31.4 +15.3 38 +34 +37 душно 1017.5 996.9
18 19.08 штиль 0 10 км ясно +23.7 +18.3 72 +28 +28 душно 1018.0 996.9 +31.6
21 19.08 ЮЗ 1 10 км ясно +19.2 +16.6 85 +22 +22 комфорт 1019.7 998.2
00 20.08 ЮЗ 1 10 км ясно +17.2 +15.4 89 +18 +18 1020.1 998.5
03 20.08 ЮЗ 1 10 км ясно +15.9 +14.8 93 +17 +17 1021.0 999.3
06 20.08 ЮЗ 1 10 км 3/0
[Ci fib]
+18.0 +15.4 85 +19 +23 1021.7 1000.1 +14.8
09 20.08 ЮВ 1 10 км 3/0
[Ci fib]
+25.3 +17.7 63 +30 +43 душно 1021.0 999.9
12 20.08 ЮВ 1 10 км 9/3 1000 м
[Cu med, cong Ac trans Ci fib]
+31.0 +17.7 45 +35 +41 очень
душно
1019.8 999.2
15 20.08 СВ 1 10 км 9/3 1000 м
[Cu med, cong Ac trans Ci fib]
+32.9 +16.3 37 +36 +37 очень
душно
1018.8 998.3
18 20.08 В 1 10 км 8/0
[Ci fib]
+26.5 +18.4 61 +31 +31 душно 1019.3 998.4 +33.6
21 20.08 В 1 10 км 4/0
[Ci fib]
+21.3 +17.9 81 +25 +25 комфорт 1020.4 999.1
00 21.08 В 1 10 км ясно +18.8 +16.8 88 +21 +21 комфорт 1020.5 999.0
03 21.08 ЮВ 1 10 км ясно +17.2 +15.9 92 +18 +18 1020.9 999.3
06 21.08 В 1 10 км ясно +19.0 +17.0 88 +22 +26 комфорт 1021.7 1000.2 +16.5
09 21.08 СВ 1 10 км ясно +27.1 +17.0 54 +31 +45 душно 1021.1 1000.2
12 21.08 СВ 1 10 км 3/0
[Ac trans]
+32.6 +17.6 41 +37 +48 очень
душно
1020.6 1000.0
15 21.08 СВ 2 10 км 8/8 600 м
[Cb calv]
+34.0 +17.6 38 +38 +38 очень
душно
1019.1 998.7
18 21.08 СЗ 6 10 км 10/10 600 м
[Cb calv]
+24.5 +15.7 58 +28 +28 душно 1020.9 999.8 +34.4
21 21.08 СВ 1 10 км ясно +21.3 +17.7 80 +25 +25 комфорт 1021.6 1000.2
00 22.08 СВ 1 10 км ясно +19.2 +16.4 84 +22 +22 комфорт 1022.6 1001.1
03 22.08 В 2 10 км ясно +18.8 +14.9 78
06 22.08 В 1 10 км 9/0
[Ac trans Ci fib]
+19.9 +15.1 74 +23 +26 комфорт 1024.3 1002.8 +18.8
09 22.08 С 1 10 км 7 баллов +25.7 +16.3 56
12 22.08 СВ 2 10 км 9/1 1000 м
[Cu med, cong Ci fib]
+29.3 +17.1 48 +33 +42 душно 1022.5 1001.7
15 22.08 СВ 2 10 км 4 балла +31.0 +17.3 44
18 22.08 С 1 10 км 9 баллов +26.7 +18.3 60 +31.0
21 22.08 С 1 10 км ясно +21.7 +16.9 74
00 23.08 С 1 10 км ясно +19.4 +15.9 80
03 23.08 СЗ 1 10 км ясно +17.6 +15.0 85
06 23.08 СВ 1 10 км 4 балла +17.8 +14.9 83 +17.6
09 23.08 В 1 10 км 9 баллов +25.7 +15.4 53
12 23.08 В 2 10 км 9 баллов +29.8 +16.9 46
15 23.08 С 2 10 км 9 баллов +30.6 +17.3 45

 

Местоположение метеостанции Хуст (Закарпатская область, Украина): широта 48.18 долгота 23.45 высота над уровнем моря 182 м.

В архиве по умолчанию представлена погода в Хусте за последнюю неделю. Архивные данные за месяц целиком и за предыдущие месяцы, начиная с января 2011 года, Вы можете получить, выбрав интересующий диапазон дат из раскрывающегося списка и нажав кнопку "Ввод!".


*Определитесь, кто Вы:
робот инопланетянин человек

Внимание! Время в таблицах - всемирное. Для получения местного времени необходимо прибавить поправку, которая равна 2 ч.

Смотрите также архив погоды в соседних городах и на ближайших метеорологических станциях:

Погода в Сигету-Мармацией (Румыния) (45 км)
Погода в Бая-Маре (Румыния) (58 км)
Погода в Нижнем Студеном (Закарпатская область, Украина) (58 км)
Погода в Плае (Черновицкая область, Украина) (59 км)
Погода в Окна Сугатаг (Румыния) (62 км)
Погода в Берегове (Закарпатская область, Украина) (63 км)
Погода в Рахове (Закарпатская область, Украина) (65 км)
Погода в Сату-Маре (Румыния) (66 км)
Погода в Ясине (Закарпатская область, Украина) (69 км)
Погода на Пожежевской (Ивано-Франковская область, Украина) (78 км)

Пояснения к столбцам:

Ветер - указаны скорость ветра в м/с - средняя за 10 мин, порывы в срок и между сроками (в фигурных скобках) и направление, откуда дует ветер: С - северный, СВ - северо-восточный, В - восточный, ЮВ - юго-восточный, Ю - южный, ЮЗ - юго-западный, З - западный, СЗ - северо-западный.
Видимость - горизонтальная дальность видимости в метрах или километрах. При видимости от 1 до 10 км при отсутствии осадков обычно наблюдается дымка, при ухудшении видимости до 1 км и менее - туман. В сухую погоду видимость может ухудшаться дымом, пылью или мглою.
Явления - указаны атмосферные явления, наблюдавшиеся в срок или в последний час перед сроком; фигурными скобками обозначены явления, наблюдавшиеся между сроками (за 1-3 часа до срока); квадратными скобками обозначены град или гололедные отложения с указанием их диаметра в мм.
Облачность - указаны через наклонную черту общая и нижняя облачность в баллах и высота нижней границы облаков в метрах; квадратными скобками обозначены формы облаков: Ci - перистые, Cs - перисто-слоистые, Cc - перисто-кучевые, Ac - высококучевые, As - высокослоистые, Sc - слоисто-кучевые, Ns - слоисто-дождевые, Cu - кучевые, Cb - кучево-дождевые. Подробнее классификацию облаков см. в Атласе облаков (PDF).
T - Температура воздуха - температура, измеренная на высоте 2 м над землей.
Td - Температура точки росы - температура, при понижении до которой содержащийся в воздухе водяной пар достигнет насыщения.
f - Относительная влажность воздуха - влажноcть воздуха, измеренная на высоте 2 м над землей.
Te - Эффективная температура - температура, которую ощущает одетый по сезону человек в тени. Характеристика душности погоды. При расчете учитывается влияние влажности воздуха и скорости ветра на теплоощущения человека.
Tes - Эффективная температура на солнце - температура, которую ощущает человек, с поправкой на солнечный нагрев. Характеристика знойности погоды. Зависит от высоты солнца над горизонтом, облачности и скорости ветра. Ночью, в пасмурную погоду, а также при ветре 12 м/с и более поправка равна нулю.
P - Атмосферное давление - приведенное к уровню моря атмосферное давление.
Po - Атмосферное давление - измеренное на уровне метеостанции атмосферное давление.
Tmin - Минимальная температура - минимум температуры воздуха на высоте 2 м над землей.
Tmax - Максимальная температура - максимум температуры воздуха на высоте 2 м над землей.
R - Количество осадков - Количество выпавших осадков за период времени, мм. При наведении курсора мыши на число - период времени, за который выпало указанное количество осадков.
R24 - Количество осадков - Количество выпавших осадков за 24 часа, мм.
S - Снежный покров - Высота снежного покрова, см. При наведении курсора мыши на число - состояние снежного покрова и степень покрытия местности в баллах.